(352335) = 2002 TN148 = 2007 VV12

Discovered at Kitt Peak on 2007-11-01 by Spacewatch.

Orbit

Orbit type: Main Belt

Note: WebGL enabled browser required.

epoch2024-03-31.0
epoch JD2460400.5
perihelion date2021-06-19.58951
perihelion JD2459385.08951
argument of perihelion (°)126.47214
ascending node (°)257.16358
inclination (°)8.10347
eccentricity0.2393653
perihelion distance (AU)2.1095432
Tisserand w.r.t. Jupiter3.3
ΔV w.r.t. Earth (km/sec)9.5
semimajor axis (AU)2.7733986
mean anomaly (°)216.68410
mean daily motion (°/day)0.21339560
aphelion distance (AU)3.437
period (years)4.62
P-vector [x]0.90828432
P-vector [y]0.32438438
P-vector [z]0.26418624
Q-vector [x]-0.39513324
Q-vector [y]0.87263786
Q-vector [z]0.28700676
absolute magnitude16.84
phase slope0.15
uncertainty0
referenceMPEC 2024-E34
observations used253
oppositions10
arc length (days)7515
first opposition used2002
last opposition used2023
residual rms (arc-secs)0.67
perturbers coarse indicatorM-v
perturbers precise indicator003Ek
first observation date used2002-08-27.0
last observation date used2023-03-25.0
computer nameMPCLINUX
JD of orbit computation2456314.688363
perihelion JD uncertainty (days)1.9637E-04
argument of perihelion uncertainty (°)6.4515E-05
ascending node uncertainty (°)3.5509E-05
inclination uncertainty (°)7.5503E-06
eccentricity uncertainty 6.3431E-08
perihelion distance uncertainty (AU)1.6098E-07
Minimum Orbit Intersection Distances (in AU)
for orbit epoch: 2460400.5, reference: E2024-E34
Mercury1.77966
Venus1.39855
Earth1.12573
Mars0.68736
Jupiter2.07774
Saturn6.23714
Uranus15.1396
Neptune27.2567

Observations

264 total observations over interval: 2002 08 27.42762 – 2023 03 25.396568
These data are available for download (format description).

Date (UT) J2000 RA J2000 Dec Magn Location Ref
2002 08 27.42762 22 35 04.58 +06 37 22.3 19.6   644 – Palomar Mountain/NEAT MPS 227064
2002 08 27.43802 22 35 04.07 +06 37 20.6 20.0   644 – Palomar Mountain/NEAT MPS 227064
2002 08 27.44841 22 35 03.55 +06 37 19.2 19.9   644 – Palomar Mountain/NEAT MPS 227064
2002 09 04.39032 22 28 38.60 +06 11 54.2 19.1   644 – Palomar Mountain/NEAT MPS 227064
2002 09 04.41168 22 28 37.52 +06 11 49.1 19.5   644 – Palomar Mountain/NEAT MPS 227064
2002 09 04.43274 22 28 36.48 +06 11 44.0 19.2   644 – Palomar Mountain/NEAT MPS 227064
2002 10 05.11055 22 11 01.69 +03 21 26.6 19.7   644 – Palomar Mountain/NEAT MPS 64089
2002 10 05.13249 22 11 01.38 +03 21 18.8 19.7   644 – Palomar Mountain/NEAT MPS 64089
2002 10 05.15350 22 11 01.08 +03 21 11.7 20.1   644 – Palomar Mountain/NEAT MPS 64089
2002 10 05.17772 22 11 00.65 +03 21 04.6 19.8   704 – Lincoln Laboratory ETS, New Mexico MPS 125658
2002 10 05.19329 22 11 00.45 +03 20 58.4 20.1   704 – Lincoln Laboratory ETS, New Mexico MPS 125658
2002 10 05.20884 22 11 00.21 +03 20 52.9 19.8   704 – Lincoln Laboratory ETS, New Mexico MPS 125658
2002 10 05.22450 22 11 00.14 +03 20 48.5 19.7   704 – Lincoln Laboratory ETS, New Mexico MPS 125658
2002 10 06.10975 22 10 50.75 +03 15 44.3 19.6   644 – Palomar Mountain/NEAT MPS 64089
2002 10 06.13034 22 10 50.50 +03 15 37.1 19.4   644 – Palomar Mountain/NEAT MPS 64089
2002 10 06.15215 22 10 50.22 +03 15 29.5 20.0   644 – Palomar Mountain/NEAT MPS 64089
2007 09 13.39788 03 39 20.18 +27 40 27.6   291 – LPL/Spacewatch II MPS 227064
2007 09 13.40303 03 39 20.45 +27 40 28.7   291 – LPL/Spacewatch II MPS 227064
2007 09 13.40722 03 39 20.65 +27 40 29.5   291 – LPL/Spacewatch II MPS 227064
2007 11 01.20803 03 41 00.72 +26 37 40.0   691 – Steward Observatory, Kitt Peak-Spacewatch MPS 225186
2007 11 01.22567 03 40 59.91 +26 37 34.0   691 – Steward Observatory, Kitt Peak-Spacewatch MPS 225186
2007 11 01.24332 03 40 59.10 +26 37 27.9   691 – Steward Observatory, Kitt Peak-Spacewatch MPS 225186
2007 11 02.45308 03 40 04.18 +26 30 07.7 19.0 V 703 – Catalina Sky Survey MPS 225186
2007 11 02.45961 03 40 03.86 +26 30 05.0 18.5 V 703 – Catalina Sky Survey MPS 225186
2007 11 02.46612 03 40 03.57 +26 30 03.5 18.7 V 703 – Catalina Sky Survey MPS 225186
2007 11 02.47280 03 40 03.28 +26 30 01.1 18.9 V 703 – Catalina Sky Survey MPS 225186
2007 11 05.20021 03 37 55.40 +26 12 28.8 19.2 V 691 – Steward Observatory, Kitt Peak-Spacewatch MPS 227064
2007 11 05.21790 03 37 54.49 +26 12 21.9 19.4 V 691 – Steward Observatory, Kitt Peak-Spacewatch MPS 227064
2007 11 05.23559 03 37 53.60 +26 12 15.1 19.4 V 691 – Steward Observatory, Kitt Peak-Spacewatch MPS 227064
2007 11 07.15785 03 36 18.78 +25 59 05.0 19.5 V 691 – Steward Observatory, Kitt Peak-Spacewatch MPS 227064
2007 11 07.17555 03 36 17.87 +25 58 57.9 19.5 V 691 – Steward Observatory, Kitt Peak-Spacewatch MPS 227064
2007 11 07.19325 03 36 16.95 +25 58 50.6 19.3 V 691 – Steward Observatory, Kitt Peak-Spacewatch MPS 227064
2007 11 09.15579 03 34 37.15 +25 44 46.7 19.2 V 691 – Steward Observatory, Kitt Peak-Spacewatch MPS 227064
2007 11 09.17344 03 34 36.20 +25 44 39.2 19.4 V 691 – Steward Observatory, Kitt Peak-Spacewatch MPS 227064
2007 11 09.19452 03 34 35.09 +25 44 30.3 19.2 V 691 – Steward Observatory, Kitt Peak-Spacewatch MPS 227064
2007 11 13.15296 03 31 07.94 +25 14 24.9 19.2 V 691 – Steward Observatory, Kitt Peak-Spacewatch MPS 227064
2007 11 13.17060 03 31 06.97 +25 14 16.9 19.1 V 691 – Steward Observatory, Kitt Peak-Spacewatch MPS 227064
2007 11 13.18824 03 31 06.00 +25 14 08.7 19.1 V 691 – Steward Observatory, Kitt Peak-Spacewatch MPS 227064
2007 11 17.13640 03 27 36.95 +24 42 15.5 19.3 V 691 – Steward Observatory, Kitt Peak-Spacewatch MPS 228361
2007 11 17.15150 03 27 36.15 +24 42 08.4 19.3 V 691 – Steward Observatory, Kitt Peak-Spacewatch MPS 228361
2007 11 17.16660 03 27 35.32 +24 42 00.9 19.2 V 691 – Steward Observatory, Kitt Peak-Spacewatch MPS 228361
2007 11 18.27942 03 26 36.54 +24 32 47.8 19.4   704 – Lincoln Laboratory ETS, New Mexico MPS 228361
2007 11 18.29196 03 26 35.76 +24 32 40.5 19.3   704 – Lincoln Laboratory ETS, New Mexico MPS 228361
2007 11 18.30453 03 26 35.13 +24 32 34.1 19.2   704 – Lincoln Laboratory ETS, New Mexico MPS 228361
2007 11 18.31707 03 26 34.43 +24 32 28.1 19.2   704 – Lincoln Laboratory ETS, New Mexico MPS 228362
2007 11 18.32963 03 26 33.74 +24 32 21.6 19.3   704 – Lincoln Laboratory ETS, New Mexico MPS 228362
2007 11 20.13208 03 25 00.46 +24 17 10.1 18.8   704 – Lincoln Laboratory ETS, New Mexico MPS 229161
2007 11 20.14455 03 24 59.76 +24 17 04.3 18.9   704 – Lincoln Laboratory ETS, New Mexico MPS 229161
2007 11 20.15701 03 24 59.12 +24 16 58.0 19.2   704 – Lincoln Laboratory ETS, New Mexico MPS 229161
2007 11 20.16949 03 24 58.42 +24 16 51.7 19.4   704 – Lincoln Laboratory ETS, New Mexico MPS 229161
2007 11 20.18224 03 24 57.79 +24 16 45.2 19.3   704 – Lincoln Laboratory ETS, New Mexico MPS 229161
2007 12 03.31245 03 14 55.35 +22 24 35.7 19.0 V 703 – Catalina Sky Survey MPS 229931
2007 12 03.32110 03 14 54.99 +22 24 31.4 19.1 V 703 – Catalina Sky Survey MPS 229931
2007 12 03.32973 03 14 54.70 +22 24 27.1 19.0 V 703 – Catalina Sky Survey MPS 229931
2007 12 03.33836 03 14 54.31 +22 24 22.2 19.0 V 703 – Catalina Sky Survey MPS 229931
2007 12 06.13137 03 13 14.47 +22 01 25.5 19.6 V 691 – Steward Observatory, Kitt Peak-Spacewatch MPS 229932
2007 12 06.14723 03 13 13.89 +22 01 17.5 19.6 V 691 – Steward Observatory, Kitt Peak-Spacewatch MPS 229932
2007 12 06.16309 03 13 13.31 +22 01 10.1 19.5 V 691 – Steward Observatory, Kitt Peak-Spacewatch MPS 229932
2007 12 10.19531 03 11 11.01 +21 29 24.5 19.4   704 – Lincoln Laboratory ETS, New Mexico MPS 230942
2007 12 10.20829 03 11 10.64 +21 29 17.0 19.9   704 – Lincoln Laboratory ETS, New Mexico MPS 230942
2007 12 10.23398 03 11 09.86 +21 29 08.0 20.0   704 – Lincoln Laboratory ETS, New Mexico MPS 230942
2007 12 14.07678 03 09 40.78 +21 00 49.4 19.9 V 691 – Steward Observatory, Kitt Peak-Spacewatch MPS 230942
2007 12 14.09013 03 09 40.50 +21 00 43.8 20.0 V 691 – Steward Observatory, Kitt Peak-Spacewatch MPS 230942
2007 12 14.10347 03 09 40.21 +21 00 38.2 19.8 V 691 – Steward Observatory, Kitt Peak-Spacewatch MPS 230942
2007 12 15.19595 03 09 19.69 +20 53 01.0 20.0   704 – Lincoln Laboratory ETS, New Mexico MPS 243583
2007 12 15.20877 03 09 19.33 +20 52 53.1 20.3   704 – Lincoln Laboratory ETS, New Mexico MPS 243583
2007 12 15.22157 03 09 19.10 +20 52 49.3 19.9   704 – Lincoln Laboratory ETS, New Mexico MPS 243583
2007 12 15.23435 03 09 18.87 +20 52 43.8 19.9   704 – Lincoln Laboratory ETS, New Mexico MPS 243583
2007 12 15.24715 03 09 18.60 +20 52 38.4 20.0   704 – Lincoln Laboratory ETS, New Mexico MPS 243583
2007 12 16.08574 03 09 04.98 +20 46 53.7 20.0 V 691 – Steward Observatory, Kitt Peak-Spacewatch MPS 231361
2007 12 16.10600 03 09 04.60 +20 46 45.8 19.8 V 691 – Steward Observatory, Kitt Peak-Spacewatch MPS 231361
2007 12 16.12280 03 09 04.31 +20 46 39.0 19.7 V 691 – Steward Observatory, Kitt Peak-Spacewatch MPS 231361
2008 01 12.23506 03 13 25.06 +18 47 33.7 20.3 V G96 – Mt. Lemmon Survey MPS 234349
2008 01 12.24163 03 13 25.28 +18 47 33.1 20.3 V G96 – Mt. Lemmon Survey MPS 234349
2008 01 12.24819 03 13 25.50 +18 47 32.0 20.5 V G96 – Mt. Lemmon Survey MPS 234349
2008 01 12.25473 03 13 25.68 +18 47 31.1 20.3 V G96 – Mt. Lemmon Survey MPS 234349
2008 02 10.16384 03 39 20.52 +18 42 54.8 21.1 V G96 – Mt. Lemmon Survey MPS 237649
2008 02 10.17052 03 39 20.98 +18 42 55.5 20.6 V G96 – Mt. Lemmon Survey MPS 237649
2008 02 10.17710 03 39 21.45 +18 42 55.9 20.7 V G96 – Mt. Lemmon Survey MPS 237649
2008 02 10.18365 03 39 21.88 +18 42 56.2 20.9 V G96 – Mt. Lemmon Survey MPS 237649
2011 06 08.41121 20 44 53.70 -11 19 01.4 21.2 V G96 – Mt. Lemmon Survey MPS 384689
2011 06 08.41754 20 44 53.73 -11 18 59.8 21.4 V G96 – Mt. Lemmon Survey MPS 384689
2011 06 08.42390 20 44 53.73 -11 18 57.5 22.2 V G96 – Mt. Lemmon Survey MPS 384689
2011 06 08.43021 20 44 53.70 -11 18 55.9 21.6 V G96 – Mt. Lemmon Survey MPS 384689
2011 08 03.39419 20 11 29.132 -09 27 47.76 20.4 g F51 – Pan-STARRS 1, Haleakala MPS 388014
